Siemreap, Cambodia

8:55 PM +07 on November 24, 2017 (GMT +0700)
Siem Reap

Weather History for VDSR - December, 2013

Change the Weather History Date:

Tuesday, December 10, 2013

  Actual Average Record
Temperature  
Mean Temperature 76 °F -  
Max Temperature 84 °F - - ()
Min Temperature 69 °F - - ()
Cooling Degree Days 12    
Growing Degree Days 26 (Base 50)    
Moisture  
Dew Point 69 °F    
Average Humidity 75    
Maximum Humidity 94    
Minimum Humidity 58    
Precipitation  
Precipitation 0.00 in - - ()
Sea Level Pressure  
Sea Level Pressure 29.77 in    
Wind  
Wind Speed 3 mph ()    
Max Wind Speed 8 mph    
Max Gust Speed -    
Visibility 5.0 miles    
Events      
T = Trace of Precipitation, MM = Missing Value Source: Averaged Metar Reports

Daily Weather History Graph

Daily Weather History Graph

Search for Another Location

Airport or City:

Trip Planner

Search our weather history database for the weather conditions in past years. The results will help you decide how hot, cold, wet, or windy it might be!

Date:

Astronomy

Dec. 10, 2013 Rise Set
Actual Time 6:16 AM +07 5:38 PM +07
Civil Twilight 5:53 AM +07 6:01 PM +07
Nautical Twilight 5:27 AM +07 6:27 PM +07
Astronomical Twilight 5:00 AM +07 6:54 PM +07
Moon 12:26 PM +07 (12/10) 12:01 AM +07 (12/10)
Length of Visible Light 12h 07m
Length of Day
11h 21m
First Quarter, 56% of the Moon is Illuminated
Dec 10
First Quarter
Dec 17
Full
Dec 25
Last Quarter
Jan 1
New
Jan 8
First Quarter

Hourly Weather History & Observations

Time (+07) Temp. Heat Index Dew Point Humidity Pressure Visibility Wind Dir Wind Speed Gust Speed Precip Events Conditions
12:00 AM 73.4 °F - 69.8 °F 88% 29.80 in 5.0 mi NNE 1.2 mph - N/A   Partly Cloudy
12:30 AM 73.4 °F - 69.8 °F 88% 29.80 in 5.0 mi Calm Calm - N/A   Partly Cloudy
1:00 AM 71.6 °F - 69.8 °F 94% 29.80 in 5.0 mi Variable 1.2 mph - N/A   Partly Cloudy
7:00 AM 69.8 °F - 66.2 °F 88% 29.80 in 3.1 mi North 2.3 mph - N/A   Partly Cloudy
8:00 AM 75.2 °F - 66.2 °F 73% 29.83 in 3.1 mi Calm Calm - N/A   Partly Cloudy
8:30 AM 77.0 °F - 66.2 °F 69% 29.83 in 4.3 mi Calm Calm - N/A   Partly Cloudy
9:00 AM 78.8 °F - 66.2 °F 65% 29.83 in 4.3 mi East 4.6 mph - N/A   Partly Cloudy
9:30 AM 78.8 °F - 66.2 °F 65% 29.86 in 4.3 mi East 8.1 mph - N/A   Partly Cloudy
10:30 AM 82.4 °F 84.6 °F 66.2 °F 58% 29.83 in 5.6 mi SE 3.5 mph - N/A   Partly Cloudy
11:00 AM 82.4 °F 84.6 °F 66.2 °F 58% 29.80 in 5.6 mi SSE 3.5 mph - N/A   Partly Cloudy
11:30 AM 82.4 °F 84.6 °F 66.2 °F 58% 29.80 in 5.6 mi SE 5.8 mph - N/A   Partly Cloudy
12:00 PM 82.4 °F 84.6 °F 66.2 °F 58% 29.77 in 5.6 mi South 6.9 mph - N/A   Partly Cloudy
12:30 PM 82.4 °F 84.6 °F 66.2 °F 58% 29.77 in 5.6 mi SSW 5.8 mph - N/A   Partly Cloudy
1:00 PM 82.4 °F 85.4 °F 68.0 °F 62% 29.77 in 5.6 mi SSW 8.1 mph - N/A   Partly Cloudy
1:30 PM 84.2 °F 88.4 °F 69.8 °F 62% 29.74 in 5.6 mi South 8.1 mph - N/A   Partly Cloudy
2:00 PM 84.2 °F 88.4 °F 69.8 °F 62% 29.71 in 5.6 mi South 8.1 mph - N/A   Partly Cloudy
2:30 PM 84.2 °F 88.4 °F 69.8 °F 62% 29.71 in 5.6 mi South 8.1 mph - N/A   Partly Cloudy
3:00 PM 84.2 °F 88.4 °F 69.8 °F 62% 29.68 in 5.0 mi WSW 8.1 mph - N/A   Partly Cloudy
3:30 PM 84.2 °F 88.4 °F 69.8 °F 62% 29.71 in 5.0 mi WSW 5.8 mph - N/A   Partly Cloudy
4:00 PM 82.4 °F 86.3 °F 69.8 °F 66% 29.68 in 5.0 mi WSW 5.8 mph - N/A   Partly Cloudy
4:30 PM 82.4 °F 86.3 °F 69.8 °F 66% 29.71 in 5.0 mi SW 5.8 mph - N/A   Unknown
5:00 PM 82.4 °F 86.3 °F 69.8 °F 66% 29.71 in 5.0 mi South 5.8 mph - N/A   Unknown
5:30 PM 80.6 °F 83.9 °F 69.8 °F 70% 29.71 in 5.0 mi SW 3.5 mph - N/A   Unknown
6:30 PM 78.8 °F - 69.8 °F 74% 29.74 in 5.0 mi Variable 1.2 mph - N/A   Unknown
7:00 PM 77.0 °F - 69.8 °F 78% 29.74 in 5.0 mi Variable 1.2 mph - N/A   Unknown
7:30 PM 75.2 °F - 73.4 °F 94% 29.77 in 5.0 mi Calm Calm - N/A   Unknown
8:00 PM 75.2 °F - 71.6 °F 89% 29.77 in 5.0 mi Calm Calm - N/A   Unknown
8:30 PM 75.2 °F - 73.4 °F 94% 29.80 in 5.0 mi Calm Calm - N/A   Unknown
9:00 PM 75.2 °F - 73.4 °F 94% 29.80 in 5.0 mi Calm Calm - N/A   Unknown
9:30 PM 75.2 °F - 71.6 °F 89% 29.80 in 5.0 mi Variable 1.2 mph - N/A   Unknown
10:00 PM 75.2 °F - 71.6 °F 89% 29.80 in 5.0 mi Variable 1.2 mph - N/A   Unknown
10:30 PM 73.4 °F - 71.6 °F 94% 29.80 in 5.0 mi Calm Calm - N/A   Unknown
11:00 PM 73.4 °F - 71.6 °F 94% 29.80 in 5.0 mi Calm Calm - N/A   Unknown
11:30 PM 73.4 °F - 71.6 °F 94% 29.80 in 5.0 mi Calm Calm - N/A   Unknown